Location: Bouchavesnes-Bergen
(49.9859°N, 2.9203°E)
Time: 23:13:29
(UTC+00:00)

CENTAUR R/B - Pass Details

Date: 09 March 2021
Orbit: 742 x 1446 km, 63.4° (Epoch: 31 March)

Event Time Altitude Azimuth Distance (km) Brightness Sun altitude
Rises 03:41:49 0° 316° (NW) 4,107 5.6 -24.8°
Reaches altitude 10° 03:44:25 10° 316° (NW) 3,227 5.0 -24.5°
Maximum altitude 03:52:26 80° 232° (SW) 1,396 3.1 -23.3°
Drops below altitude 10° 04:01:18 10° 147° (SSE) 3,547 5.5 -21.9°
Sets 04:04:18 0° 146° (SE) 4,531 6.2 -21.5°
